Location: Beverley
(50.2667°N, 107.9667°W)
Time: 08:28:20
(UTC+00:00)

KKS-1 - Visible Passes

Search period start: 27 June 2022 00:00
Search period end: 07 July 2022 00:00
Orbit: 636 x 647 km, 98.2° (Epoch: 26 June)

Date Brightness Start Highest point End Pass type
(mag) Time Alt. Az. Time Alt. Az. Time Alt. Az.
27 Jun ? 05:29:28 10° NNE 05:33:58 87° WNW 05:38:00 13° SSW visible
27 Jun ? 07:07:30 10° NNW 07:09:49 14° NW 07:12:07 10° W visible
28 Jun ? 04:17:43 10° NE 04:21:05 21° E 04:24:26 10° SE visible
28 Jun ? 05:53:32 10° N 05:57:55 53° WNW 06:02:16 10° SW visible
29 Jun ? 04:41:12 10° NNE 04:45:16 33° E 04:48:54 12° SSE visible
29 Jun ? 06:17:46 10° N 06:21:47 33° WNW 06:25:46 10° SW visible
30 Jun ? 05:04:58 10° NNE 05:09:23 55° E 05:13:08 14° S visible
30 Jun ? 06:42:10 10° N 06:45:34 22° WNW 06:48:57 10° WSW visible
01 Jul ? 05:28:54 10° NNE 05:33:25 89° W 05:37:22 13° SSW visible
01 Jul ? 07:06:54 10° NNW 07:09:17 14° NW 07:11:38 10° W visible
02 Jul ? 04:17:11 10° NE 04:20:32 20° E 04:23:49 10° SE visible
02 Jul ? 05:52:59 10° N 05:57:22 54° WNW 06:01:37 11° SW visible
03 Jul ? 04:40:40 10° NNE 04:44:43 32° E 04:48:15 13° SSE visible
03 Jul ? 06:17:12 10° N 06:21:14 33° WNW 06:25:14 10° SW visible
04 Jul ? 05:04:25 10° NNE 05:08:50 54° E 05:12:28 14° S visible
04 Jul ? 06:41:35 10° N 06:45:01 22° WNW 06:48:25 10° WSW visible
05 Jul ? 05:28:20 10° NNE 05:32:51 90° ESE 05:36:42 14° SSW visible
05 Jul ? 07:06:18 10° NNW 07:08:43 15° NW 07:11:08 10° W visible
06 Jul ? 04:16:40 10° NE 04:19:56 20° E 04:23:12 10° SE visible
06 Jul ? 05:52:24 10° N 05:56:48 55° WNW 06:00:55 11° SSW visible
